Weather History for VIAR - February, 2013

Change the Weather History Date:

Friday, February 15, 2013

  Actual Average Record
Temperature  
Mean Temperature 58 °F -  
Max Temperature 65 °F 68 °F 82 °F (2001)
Min Temperature 51 °F 47 °F 35 °F (2008)
Degree Days  
Heating Degree Days 7    
Growing Degree Days 8 (Base 50)    
Moisture  
Dew Point 55 °F    
Average Humidity 93    
Maximum Humidity 100    
Minimum Humidity 12    
Precipitation  
Precipitation 0.00 in - - ()
Sea Level Pressure  
Sea Level Pressure 29.88 in    
Wind  
Wind Speed 3 mph ()    
Max Wind Speed 15 mph    
Max Gust Speed -    
Visibility 1.5 miles    
Events Rain    
Averages and records for this station are not official NWS values.
T = Trace of Precipitation, MM = Missing Value Source: Averaged Metar Reports

Daily Weather History Graph

Daily Weather History Graph

Search for Another Location

Airport or City:

Trip Planner

Search our weather history database for the weather conditions in past years. The results will help you decide how hot, cold, wet, or windy it might be!

Date:

Astronomy

Feb. 15, 2013 Rise Set
Actual Time 7:12 AM IST 6:17 PM IST
Civil Twilight 6:47 AM IST 6:42 PM IST
Nautical Twilight 6:19 AM IST 7:10 PM IST
Astronomical Twilight 5:51 AM IST 7:39 PM IST
Moon 9:55 AM IST (2/15) 11:27 PM IST (2/15)
Length of Visible Light 11h 54m
Length of Day
11h 04m
Waxing Crescent, 26% of the Moon is Illuminated
Feb 15
Waxing Crescent
Feb 18
First Quarter
Feb 26
Full
Mar 5
Last Quarter
Mar 12
New

Hourly Weather History & Observations

Time (IST) Temp. Dew Point Humidity Pressure Visibility Wind Dir Wind Speed Gust Speed Precip Events Conditions
12:00 AM 53.6 °F 53.6 °F 100% 29.95 in 0.6 mi Calm Calm - N/A   Mostly Cloudy
12:30 AM 53.6 °F 53.6 °F 100% 29.92 in 0.6 mi Calm Calm - N/A   Mostly Cloudy
1:00 AM 53.6 °F 53.6 °F 100% 29.92 in 0.6 mi Calm Calm - N/A   Mostly Cloudy
1:30 AM 53.6 °F 53.6 °F 100% 29.92 in 0.6 mi Calm Calm - N/A   Mostly Cloudy
2:00 AM 53.6 °F 53.6 °F 100% 29.89 in 0.6 mi Calm Calm - N/A   Mostly Cloudy
2:30 AM 54 °F 54 °F 99% 29.88 in 0 mi Calm Calm - -   Mist
2:30 AM 53.6 °F 53.6 °F 100% 29.89 in 0.6 mi Calm Calm - N/A   Mostly Cloudy
3:00 AM 53.6 °F 53.6 °F 100% 29.86 in 0.6 mi Calm Calm - N/A   Mostly Cloudy
3:30 AM 59.0 °F 5.0 °F 12% 29.83 in 0.6 mi Variable 6.9 mph - N/A   Mostly Cloudy
4:00 AM 55.4 °F 28.4 °F 36% 29.83 in 0.6 mi Variable 2.3 mph - N/A   Mostly Cloudy
5:00 AM 55.4 °F 55.4 °F 100% 29.83 in 0.6 mi Calm Calm - N/A   Mostly Cloudy
5:30 AM 54 °F 54 °F 100% 29.86 in 0 mi SSW 4.6 mph - -   Mist
5:30 AM 53.6 °F 53.6 °F 100% 29.86 in 0.6 mi SSW 4.6 mph - N/A   Mostly Cloudy
6:00 AM 53.6 °F 53.6 °F 100% 29.86 in 1.2 mi Calm Calm - N/A   Mostly Cloudy
6:30 AM 53.6 °F 53.6 °F 100% 29.86 in 1.2 mi Calm Calm - N/A   Mostly Cloudy
7:00 AM 53.6 °F 53.6 °F 100% 29.86 in 1.2 mi Calm Calm - N/A   Mostly Cloudy
7:30 AM 53.6 °F 53.6 °F 100% 29.86 in 1.2 mi SSW 6.9 mph - N/A   Mostly Cloudy
8:00 AM 53.6 °F 53.6 °F 100% 29.89 in 1.2 mi Variable 2.3 mph - N/A   Mostly Cloudy
8:30 AM 55 °F 55 °F 100% 29.91 in 1 mi Calm Calm - -   Mist
8:30 AM 55.4 °F 55.4 °F 100% 29.89 in 1.6 mi Variable 2.3 mph - N/A   Overcast
9:30 AM 57.2 °F 57.2 °F 100% 29.92 in 2.2 mi North 3.5 mph - N/A   Overcast
10:00 AM 57.2 °F 57.2 °F 100% 29.92 in 2.2 mi Calm Calm - N/A   Overcast
10:30 AM 57.2 °F 57.2 °F 100% 29.92 in 2.5 mi WNW 6.9 mph - N/A   Overcast
11:00 AM 59.0 °F 59.0 °F 100% 29.92 in 2.5 mi Variable 6.9 mph - N/A   Overcast
11:30 AM - - % 29.94 in 2 mi ENE 10.4 mph - -   Mist
11:30 AM 59.0 °F 59.0 °F 100% 29.95 in 2.5 mi NE 10.4 mph - N/A   Overcast
12:30 PM 64.4 °F 55.4 °F 73% 29.92 in 3.7 mi North 11.5 mph - N/A   Mostly Cloudy
1:00 PM 64.4 °F 55.4 °F 73% 29.92 in 3.7 mi NE 12.7 mph - N/A   Mostly Cloudy
1:30 PM 62.6 °F 57.2 °F 82% 29.92 in 3.7 mi Variable 10.4 mph - N/A   Overcast
2:00 PM 62.6 °F 59.0 °F 88% 29.92 in 3.7 mi East 8.1 mph - N/A   Overcast
2:30 PM 63 °F 57 °F 74% 29.88 in 2 mi NNE 6.9 mph - -   Smoke
2:30 PM 62.6 °F 57.2 °F 82% 29.89 in 2.8 mi NNE 6.9 mph - N/A   Smoke
3:00 PM 62.6 °F 59.0 °F 88% 29.86 in 2.8 mi Variable 8.1 mph - N/A   Smoke
3:30 PM 62.6 °F 57.2 °F 82% 29.86 in 2.5 mi Variable 1.2 mph - N/A   Smoke
4:00 PM 62.6 °F 57.2 °F 82% 29.86 in 2.5 mi Variable 8.1 mph - N/A   Drizzle
4:30 PM 62.6 °F 60.8 °F 94% 29.86 in 1.9 mi NE 6.9 mph - N/A   Light Drizzle
5:00 PM 62.6 °F 60.8 °F 94% 29.83 in 1.9 mi North 9.2 mph - N/A   Drizzle
5:30 PM 61 °F 61 °F 100% 29.83 in 1 mi NNE 8.1 mph - - Rain Light Drizzle
5:30 PM 60.8 °F 60.8 °F 100% 29.83 in 1.9 mi NNE 8.1 mph - N/A   Light Drizzle
6:00 PM 60.8 °F 60.8 °F 100% 29.83 in 1.6 mi ENE 4.6 mph - N/A   Overcast
6:30 PM 59.0 °F 59.0 °F 100% 29.86 in 1.2 mi ENE 4.6 mph - N/A   Overcast
7:30 PM 59.0 °F 59.0 °F 100% 29.86 in 0.7 mi ENE 3.5 mph - N/A   Mostly Cloudy
8:00 PM 57.2 °F 57.2 °F 100% 29.86 in 0.7 mi East 3.5 mph - N/A   Scattered Clouds
8:30 PM 56 °F 56 °F 100% 29.88 in 1 mi NE 4.6 mph - -   Mist
8:30 PM 57.2 °F 57.2 °F 100% 29.86 in 0.7 mi NE 4.6 mph - N/A   Scattered Clouds
9:00 PM 55.4 °F 55.4 °F 100% 29.89 in 0.9 mi ENE 5.8 mph - N/A   Scattered Clouds
9:30 PM 55.4 °F 55.4 °F 100% 29.89 in 1.2 mi ENE 6.9 mph - N/A   Scattered Clouds
10:00 PM 55.4 °F 53.6 °F 94% 29.89 in 1.2 mi NE 6.9 mph - N/A   Scattered Clouds
10:30 PM 53.6 °F 53.6 °F 100% 29.89 in 1.6 mi ENE 6.9 mph - N/A   Scattered Clouds
11:00 PM 53.6 °F 53.6 °F 100% 29.86 in 1.6 mi ENE 6.9 mph - N/A   Scattered Clouds
11:30 PM - - %  in 1 mi North 15.0 mph - -   Mist
11:30 PM 53.6 °F 53.6 °F 100% 29.86 in 1.6 mi NE 5.8 mph - N/A   Scattered Clouds